QPF
0.10 0.09 0.09 0.10 0.08 0.07 0.05 0.05 0.04 0.05 0.06 0.07 0.07 0.08 0.09 0.10 0.10 0.10 0.11 0.11 0.11 0.11 0.09 0.07 0.04 0.04 0.04 0.02 0.02 0.01 0.02 0.02 0.03 0.02 0.03 0.04 0.05 0.05 0.06 0.06 0.05 0.05 0.07
0.09 0.10 0.09 0.07 0.06 0.06 0.05 0.06 0.07 0.09 0.11 0.10 0.09 0.09 0.10 0.12 0.13 0.13 0.13 0.12 0.10 0.09 0.08 0.08 0.07 0.07 0.06 0.04 0.03 0.02 0.02 0.03 0.03 0.02 0.02 0.03 0.04 0.05 0.07 0.08 0.07 0.07 0.06
0.08 0.07 0.08 0.08 0.06 0.06 0.07 0.10 0.12 0.14 0.15 0.13 0.13 0.12 0.12 0.13 0.13 0.12 0.13 0.12 0.11 0.11 0.11 0.11 0.11 0.11 0.08 0.06 0.05 0.05 0.04 0.04 0.04 0.04 0.03 0.03 0.03 0.03 0.05 0.07 0.07 0.06 0.04
0.04 0.05 0.07 0.06 0.05 0.06 0.08 0.09 0.11 0.11 0.11 0.10 0.12 0.13 0.13 0.13 0.12 0.12 0.12 0.12 0.12 0.14 0.15 0.16 0.16 0.15 0.12 0.09 0.07 0.05 0.04 0.04 0.04 0.04 0.03 0.02 0.02 0.02 0.04 0.05 0.05 0.04 0.03
0.03 0.04 0.06 0.06 0.05 0.05 0.06 0.07 0.08 0.09 0.10 0.10 0.11 0.12 0.12 0.13 0.11 0.10 0.11 0.13 0.15 0.15 0.13 0.13 0.14 0.13 0.11 0.08 0.06 0.05 0.04 0.04 0.04 0.03 0.04 0.04 0.05 0.05 0.06 0.05 0.05 0.05 0.04
0.02 0.02 0.03 0.03 0.03 0.04 0.07 0.09 0.08 0.07 0.08 0.08 0.09 0.09 0.09 0.08 0.08 0.08 0.09 0.10 0.11 0.11 0.10 0.10 0.10 0.11 0.11 0.09 0.06 0.06 0.04 0.03 0.03 0.03 0.04 0.05 0.05 0.05 0.04 0.04 0.04 0.04 0.04
0.03 0.03 0.02 0.02 0.02 0.05 0.08 0.07 0.06 0.07 0.08 0.08 0.08 0.09 0.10 0.11 0.12 0.10 0.09 0.09 0.10 0.09 0.09 0.10 0.09 0.10 0.11 0.10 0.08 0.06 0.05 0.05 0.04 0.03 0.03 0.03 0.02 0.02 0.02 0.02 0.02 0.03 0.03
0.05 0.04 0.03 0.03 0.03 0.04 0.08 0.08 0.07 0.08 0.08 0.10 0.10 0.10 0.09 0.09 0.10 0.11 0.10 0.09 0.09 0.09 0.11 0.11 0.09 0.10 0.09 0.09 0.07 0.06 0.06 0.06 0.06 0.04 0.03 0.03 0.02 0.02 0.02 0.02 0.02 0.02 0.02
0.05 0.04 0.04 0.05 0.05 0.06 0.07 0.06 0.05 0.05 0.06 0.07 0.07 0.07 0.07 0.08 0.11 0.09 0.09 0.08 0.09 0.09 0.10 0.10 0.09 0.08 0.09 0.09 0.07 0.07 0.06 0.05 0.05 0.04 0.03 0.03 0.02 0.02 0.02 0.02 0.02 0.02 0.02
0.05 0.04 0.03 0.05 0.05 0.05 0.06 0.06 0.06 0.06 0.06 0.05 0.05 0.06 0.07 0.07 0.10 0.10 0.09 0.08 0.08 0.08 0.07 0.07 0.08 0.07 0.07 0.07 0.06 0.06 0.05 0.05 0.04 0.03 0.02 0.02 0.01 0.01 0.01 0.01 0.01 0.01 0.01
0.04 0.04 0.03 0.03 0.04 0.06 0.05 0.06 0.04 0.03 0.04 0.04 0.04 0.05 0.05 0.05 0.06 0.06 0.06 0.05 0.05 0.05 0.04 0.04 0.05 0.06 0.05 0.05 0.05 0.04 0.04 0.03 0.03 0.02 0.01 0.01 0.01 0.01 0.01 0.01 0.00 0.00 0.00
0.03 0.03 0.04 0.04 0.05 0.04 0.03 0.03 0.02 0.02 0.02 0.02 0.02 0.01 0.02 0.02 0.03 0.04 0.05 0.05 0.04 0.03 0.04 0.04 0.05 0.05 0.04 0.04 0.03 0.03 0.02 0.02 0.01 0.01 0.01 0.01 0.01 0.02 0.01 0.01 0.00 0.00 0.00
0.02 0.03 0.04 0.04 0.05 0.04 0.03 0.02 0.02 0.01 0.01 0.02 0.01 0.01 0.02 0.03 0.04 0.05 0.05 0.06 0.05 0.05 0.06 0.07 0.06 0.05 0.03 0.02 0.02 0.01 0.01 0.01 0.01 0.02 0.02 0.02 0.02 0.01 0.01 0.00 0.00 0.00 0.00
0.03 0.03 0.05 0.05 0.05 0.05 0.03 0.02 0.02 0.02 0.02 0.02 0.01 0.02 0.02 0.02 0.02 0.03 0.03 0.04 0.05 0.06 0.07 0.08 0.07 0.06 0.05 0.05 0.04 0.03 0.02 0.02 0.02 0.02 0.02 0.01 0.01 0.01 0.01 0.00 0.00 0.00 0.00
0.04 0.04 0.04 0.04 0.04 0.04 0.04 0.04 0.03 0.03 0.04 0.04 0.03 0.03 0.03 0.02 0.04 0.06 0.07 0.06 0.04 0.03 0.03 0.03 0.03 0.04 0.06 0.07 0.06 0.03 0.02 0.02 0.01 0.01 0.01 0.01 0.01 0.00 0.00 0.00 0.00 0.00 0.00
0.05 0.04 0.04 0.04 0.04 0.04 0.04 0.05 0.05 0.04 0.04 0.03 0.03 0.03 0.04 0.04 0.04 0.03 0.03 0.04 0.04 0.04 0.03 0.03 0.03 0.03 0.03 0.03 0.03 0.02 0.02 0.01 0.01 0.01 0.00 0.00 0.00 0.00 0.00 0.00 0.00 0.00 0.00
0.06 0.06 0.05 0.05 0.04 0.04 0.04 0.04 0.06 0.07 0.06 0.05 0.03 0.04 0.04 0.05 0.05 0.05 0.04 0.05 0.05 0.04 0.03 0.04 0.04 0.04 0.03 0.03 0.02 0.02 0.01 0.01 0.01 0.01 0.00 0.00 0.00 0.00 0.00 0.00 0.00 0.00 0.00
0.07 0.07 0.06 0.05 0.04 0.04 0.04 0.05 0.05 0.05 0.04 0.04 0.03 0.03 0.02 0.03 0.03 0.03 0.03 0.03 0.03 0.03 0.03 0.04 0.04 0.04 0.03 0.03 0.02 0.02 0.02 0.01 0.00 0.00 0.00 0.00 0.00 0.00 0.00 0.00 0.00 0.00 0.00
0.07 0.07 0.06 0.05 0.04 0.04 0.05 0.05 0.05 0.04 0.04 0.03 0.03 0.03 0.03 0.02 0.02 0.02 0.02 0.02 0.03 0.03 0.04 0.04 0.04 0.03 0.03 0.02 0.01 0.01 0.00 0.00 0.00 0.00 0.00 0.00 0.00 0.00 0.00 0.00 0.00 0.00 0.00
0.06 0.06 0.05 0.04 0.04 0.03 0.04 0.03 0.03 0.02 0.02 0.02 0.02 0.02 0.02 0.01 0.01 0.02 0.02 0.02 0.03 0.03 0.03 0.03 0.03 0.02 0.01 0.01 0.00 0.00 0.00 0.00 0.00 0.00 0.00 0.00 0.00 0.00 0.00 0.00 0.00 0.00 0.00
0.06 0.05 0.05 0.04 0.03 0.02 0.02 0.02 0.01 0.01 0.01 0.01 0.01 0.01 0.01 0.01 0.01 0.02 0.02 0.02 0.01 0.01 0.01 0.01 0.01 0.01 0.00 0.00 0.00 0.00 0.00 0.00 0.00 0.00 0.00 0.00 0.00 0.00 0.00 0.00 0.00 0.00 0.00
0.04 0.04 0.04 0.03 0.02 0.02 0.02 0.01 0.01 0.00 0.00 0.01 0.01 0.01 0.01 0.01 0.01 0.01 0.01 0.01 0.01 0.00 0.00 0.00 0.00 0.00 0.00 0.00 0.00 0.00 0.00 0.00 0.00 0.00 0.00 0.00 0.00 0.00 0.00 0.00 0.00 0.00 0.00
0.03 0.03 0.02 0.02 0.01 0.01 0.01 0.01 0.01 0.01 0.01 0.01 0.01 0.01 0.01 0.00 0.00 0.00 0.00 0.00 0.00 0.00 0.00 0.00 0.00 0.00 0.00 0.00 0.00 0.00 0.00 0.00 0.00 0.00 0.00 0.00 0.00 0.00 0.00 0.00 0.00 0.00 0.00
0.02 0.01 0.01 0.01 0.01 0.00 0.00 0.00 0.00 0.00 0.00 0.00 0.00 0.00 0.00 0.00 0.00 0.00 0.00 0.00 0.00 0.00 0.00 0.00 0.00 0.00 0.00 0.00 0.00 0.00 0.00 0.00 0.00 0.00 0.00 0.00 0.00 0.00 0.00 0.00 0.00 0.00 0.00
0.01 0.02 0.02 0.01 0.00 0.01 0.01 0.00 0.00 0.00 0.00 0.00 0.00 0.00 0.00 0.00 0.00 0.00 0.00 0.00 0.00 0.00 0.00 0.00 0.00 0.00 0.00 0.00 0.00 0.00 0.00 0.00 0.00 0.00 0.00 0.00 0.00 0.00 0.00 0.00 0.00 0.00 0.00
0.01 0.01 0.02 0.02 0.01 0.00 0.00 0.00 0.00 0.00 0.00 0.00 0.00 0.00 0.00 0.00 0.00 0.00 0.00 0.00 0.00 0.00 0.00 0.00 0.00 0.00 0.00 0.00 0.00 0.00 0.00 0.00 0.00 0.00 0.00 0.00 0.00 0.00 0.00 0.00 0.00 0.00 0.00
MSLP
1011.55 1011.73 1011.93 1012.14 1012.31 1012.43 1012.50 1012.55 1012.61 1012.70 1012.87 1013.10 1013.41 1013.78 1014.18 1014.59 1014.99 1015.38 1015.74 1016.09 1016.43 1016.78 1017.13 1017.48 1017.82 1018.14 1018.44 1018.71 1018.94 1019.14 1019.33 1019.50 1019.66 1019.81 1019.95 1020.07 1020.16 1020.22 1020.26 1020.28 1020.32 1020.38 1020.49
1011.62 1011.68 1011.77 1011.86 1011.92 1011.96 1011.97 1011.98 1012.01 1012.08 1012.22 1012.45 1012.75 1013.11 1013.51 1013.94 1014.38 1014.81 1015.24 1015.65 1016.06 1016.45 1016.83 1017.19 1017.53 1017.84 1018.12 1018.39 1018.64 1018.89 1019.15 1019.43 1019.73 1020.03 1020.31 1020.56 1020.76 1020.90 1020.98 1021.02 1021.03 1021.05 1021.10
1011.83 1011.81 1011.80 1011.78 1011.75 1011.70 1011.64 1011.59 1011.57 1011.61 1011.72 1011.91 1012.18 1012.53 1012.93 1013.37 1013.83 1014.32 1014.81 1015.30 1015.78 1016.24 1016.67 1017.08 1017.44 1017.77 1018.06 1018.34 1018.61 1018.91 1019.24 1019.60 1020.00 1020.41 1020.81 1021.16 1021.45 1021.66 1021.78 1021.82 1021.82 1021.80 1021.79
1012.13 1012.07 1012.00 1011.91 1011.80 1011.68 1011.55 1011.45 1011.38 1011.37 1011.44 1011.58 1011.82 1012.13 1012.50 1012.94 1013.42 1013.94 1014.49 1015.05 1015.61 1016.16 1016.67 1017.14 1017.56 1017.93 1018.26 1018.56 1018.87 1019.20 1019.58 1019.99 1020.45 1020.93 1021.40 1021.82 1022.17 1022.42 1022.57 1022.63 1022.61 1022.56 1022.51
1012.45 1012.40 1012.32 1012.20 1012.06 1011.89 1011.72 1011.57 1011.47 1011.41 1011.43 1011.53 1011.72 1011.98 1012.31 1012.72 1013.20 1013.74 1014.32 1014.94 1015.58 1016.21 1016.81 1017.37 1017.87 1018.31 1018.69 1019.04 1019.38 1019.73 1020.13 1020.57 1021.04 1021.55 1022.04 1022.49 1022.86 1023.13 1023.29 1023.36 1023.34 1023.28 1023.20
1012.74 1012.75 1012.71 1012.61 1012.47 1012.30 1012.13 1011.96 1011.84 1011.76 1011.74 1011.79 1011.92 1012.13 1012.41 1012.77 1013.22 1013.74 1014.34 1015.00 1015.70 1016.40 1017.10 1017.74 1018.33 1018.85 1019.30 1019.69 1020.07 1020.43 1020.83 1021.25 1021.71 1022.19 1022.66 1023.09 1023.46 1023.73 1023.90 1023.97 1023.96 1023.90 1023.82
1012.98 1013.09 1013.12 1013.09 1013.00 1012.87 1012.72 1012.58 1012.46 1012.38 1012.34 1012.36 1012.44 1012.59 1012.81 1013.11 1013.51 1014.00 1014.58 1015.25 1015.98 1016.74 1017.51 1018.24 1018.91 1019.50 1020.02 1020.46 1020.86 1021.23 1021.60 1021.98 1022.39 1022.81 1023.23 1023.61 1023.94 1024.19 1024.36 1024.43 1024.44 1024.40 1024.34
1013.19 1013.40 1013.54 1013.59 1013.58 1013.52 1013.44 1013.35 1013.28 1013.22 1013.20 1013.21 1013.26 1013.36 1013.53 1013.76 1014.09 1014.53 1015.07 1015.72 1016.45 1017.24 1018.05 1018.84 1019.57 1020.23 1020.80 1021.28 1021.68 1022.04 1022.38 1022.71 1023.04 1023.38 1023.72 1024.03 1024.31 1024.53 1024.68 1024.77 1024.79 1024.78 1024.74
1013.40 1013.72 1013.95 1014.10 1014.18 1014.22 1014.22 1014.22 1014.22 1014.22 1014.24 1014.27 1014.32 1014.40 1014.51 1014.70 1014.96 1015.33 1015.82 1016.42 1017.13 1017.91 1018.73 1019.54 1020.31 1021.00 1021.60 1022.09 1022.50 1022.83 1023.12 1023.38 1023.63 1023.89 1024.13 1024.37 1024.58 1024.76 1024.90 1024.99 1025.04 1025.06 1025.05
1013.67 1014.06 1014.37 1014.60 1014.77 1014.90 1015.01 1015.11 1015.20 1015.29 1015.38 1015.46 1015.54 1015.62 1015.72 1015.86 1016.07 1016.38 1016.81 1017.35 1018.01 1018.75 1019.53 1020.33 1021.10 1021.79 1022.39 1022.88 1023.27 1023.57 1023.81 1024.00 1024.17 1024.34 1024.50 1024.66 1024.81 1024.95 1025.06 1025.15 1025.22 1025.26 1025.29
1014.02 1014.44 1014.79 1015.09 1015.33 1015.55 1015.76 1015.96 1016.17 1016.36 1016.54 1016.70 1016.83 1016.94 1017.05 1017.18 1017.36 1017.62 1017.99 1018.46 1019.05 1019.72 1020.45 1021.20 1021.93 1022.59 1023.16 1023.62 1023.98 1024.24 1024.43 1024.56 1024.66 1024.75 1024.84 1024.93 1025.03 1025.13 1025.22 1025.30 1025.37 1025.43 1025.47
1014.44 1014.85 1015.22 1015.55 1015.85 1016.14 1016.44 1016.75 1017.06 1017.36 1017.65 1017.90 1018.11 1018.28 1018.43 1018.57 1018.75 1018.98 1019.29 1019.69 1020.20 1020.79 1021.44 1022.11 1022.76 1023.36 1023.88 1024.30 1024.61 1024.83 1024.98 1025.06 1025.11 1025.15 1025.18 1025.23 1025.28 1025.34 1025.40 1025.47 1025.53 1025.59 1025.64
1014.90 1015.29 1015.64 1015.98 1016.31 1016.67 1017.04 1017.44 1017.85 1018.26 1018.65 1019.01 1019.31 1019.56 1019.76 1019.94 1020.12 1020.34 1020.61 1020.96 1021.39 1021.89 1022.44 1023.01 1023.57 1024.09 1024.53 1024.89 1025.16 1025.34 1025.45 1025.51 1025.53 1025.53 1025.54 1025.55 1025.57 1025.60 1025.64 1025.68 1025.73 1025.77 1025.81
1015.38 1015.71 1016.04 1016.38 1016.74 1017.13 1017.57 1018.04 1018.54 1019.04 1019.53 1019.98 1020.36 1020.69 1020.96 1021.19 1021.40 1021.61 1021.86 1022.16 1022.52 1022.92 1023.37 1023.84 1024.29 1024.71 1025.08 1025.38 1025.60 1025.75 1025.85 1025.89 1025.91 1025.91 1025.91 1025.91 1025.91 1025.92 1025.94 1025.95 1025.97 1025.98 1025.99
1015.83 1016.13 1016.43 1016.76 1017.14 1017.57 1018.05 1018.58 1019.14 1019.71 1020.27 1020.79 1021.25 1021.65 1021.98 1022.25 1022.49 1022.72 1022.95 1023.21 1023.50 1023.82 1024.17 1024.54 1024.89 1025.22 1025.51 1025.75 1025.94 1026.07 1026.16 1026.22 1026.25 1026.27 1026.28 1026.29 1026.29 1026.29 1026.29 1026.27 1026.26 1026.23 1026.20
1016.25 1016.53 1016.82 1017.16 1017.55 1018.00 1018.52 1019.08 1019.68 1020.30 1020.90 1021.46 1021.97 1022.41 1022.79 1023.10 1023.36 1023.60 1023.82 1024.04 1024.28 1024.53 1024.80 1025.07 1025.34 1025.59 1025.81 1026.01 1026.17 1026.30 1026.41 1026.49 1026.56 1026.61 1026.65 1026.68 1026.69 1026.68 1026.66 1026.62 1026.56 1026.49 1026.41
1016.66 1016.93 1017.24 1017.59 1018.00 1018.48 1019.02 1019.60 1020.21 1020.84 1021.45 1022.02 1022.54 1023.00 1023.40 1023.73 1024.01 1024.24 1024.45 1024.65 1024.85 1025.04 1025.24 1025.44 1025.64 1025.83 1026.01 1026.18 1026.33 1026.47 1026.60 1026.72 1026.83 1026.92 1027.00 1027.05 1027.07 1027.07 1027.03 1026.96 1026.87 1026.75 1026.62
1017.08 1017.37 1017.70 1018.08 1018.52 1019.01 1019.56 1020.14 1020.74 1021.35 1021.94 1022.50 1023.01 1023.45 1023.84 1024.17 1024.44 1024.68 1024.88 1025.05 1025.22 1025.37 1025.53 1025.68 1025.83 1025.98 1026.13 1026.29 1026.45 1026.61 1026.77 1026.92 1027.07 1027.21 1027.31 1027.39 1027.42 1027.41 1027.35 1027.26 1027.13 1026.98 1026.81
1017.54 1017.86 1018.22 1018.63 1019.09 1019.59 1020.13 1020.70 1021.28 1021.85 1022.40 1022.91 1023.38 1023.79 1024.15 1024.46 1024.72 1024.94 1025.13 1025.29 1025.44 1025.57 1025.70 1025.82 1025.95 1026.09 1026.23 1026.39 1026.56 1026.74 1026.93 1027.12 1027.30 1027.46 1027.58 1027.67 1027.70 1027.68 1027.61 1027.49 1027.33 1027.14 1026.94
1018.03 1018.37 1018.76 1019.20 1019.67 1020.18 1020.71 1021.25 1021.78 1022.31 1022.80 1023.26 1023.67 1024.04 1024.36 1024.64 1024.88 1025.08 1025.26 1025.42 1025.55 1025.68 1025.80 1025.92 1026.05 1026.18 1026.33 1026.50 1026.68 1026.89 1027.09 1027.30 1027.50 1027.67 1027.80 1027.88 1027.90 1027.86 1027.77 1027.63 1027.44 1027.24 1027.01
1018.51 1018.87 1019.27 1019.72 1020.20 1020.69 1021.20 1021.71 1022.21 1022.68 1023.11 1023.51 1023.87 1024.19 1024.48 1024.73 1024.95 1025.14 1025.31 1025.47 1025.61 1025.74 1025.87 1026.00 1026.14 1026.28 1026.45 1026.63 1026.83 1027.04 1027.26 1027.47 1027.67 1027.83 1027.95 1028.01 1028.01 1027.95 1027.84 1027.67 1027.47 1027.25 1027.02
1018.91 1019.27 1019.68 1020.11 1020.58 1021.06 1021.55 1022.02 1022.48 1022.90 1023.29 1023.65 1023.96 1024.25 1024.50 1024.73 1024.94 1025.13 1025.30 1025.46 1025.62 1025.77 1025.91 1026.06 1026.22 1026.38 1026.57 1026.76 1026.97 1027.19 1027.41 1027.61 1027.79 1027.93 1028.03 1028.06 1028.03 1027.95 1027.81 1027.63 1027.43 1027.20 1026.98
1019.16 1019.50 1019.88 1020.30 1020.75 1021.21 1021.67 1022.12 1022.54 1022.94 1023.30 1023.62 1023.91 1024.18 1024.42 1024.64 1024.85 1025.04 1025.23 1025.41 1025.58 1025.75 1025.92 1026.09 1026.27 1026.45 1026.65 1026.86 1027.08 1027.29 1027.50 1027.69 1027.85 1027.96 1028.02 1028.03 1027.97 1027.87 1027.71 1027.53 1027.32 1027.11 1026.90
1019.20 1019.51 1019.86 1020.25 1020.67 1021.11 1021.55 1021.97 1022.38 1022.76 1023.11 1023.42 1023.71 1023.98 1024.22 1024.45 1024.67 1024.88 1025.08 1025.28 1025.47 1025.67 1025.86 1026.05 1026.25 1026.45 1026.67 1026.89 1027.11 1027.32 1027.52 1027.69 1027.82 1027.91 1027.95 1027.93 1027.85 1027.73 1027.57 1027.38 1027.18 1026.98 1026.79
1019.03 1019.29 1019.61 1019.98 1020.37 1020.79 1021.21 1021.62 1022.02 1022.39 1022.74 1023.06 1023.36 1023.65 1023.91 1024.16 1024.40 1024.63 1024.86 1025.07 1025.29 1025.50 1025.71 1025.92 1026.13 1026.35 1026.58 1026.80 1027.03 1027.24 1027.43 1027.59 1027.71 1027.78 1027.80 1027.76 1027.68 1027.55 1027.39 1027.22 1027.03 1026.85 1026.67
1018.69 1018.93 1019.22 1019.56 1019.93 1020.32 1020.72 1021.13 1021.52 1021.89 1022.25 1022.59 1022.91 1023.22 1023.51 1023.78 1024.05 1024.30 1024.55 1024.78 1025.01 1025.23 1025.45 1025.67 1025.90 1026.13 1026.36 1026.59 1026.82 1027.03 1027.22 1027.38 1027.49 1027.56 1027.58 1027.54 1027.46 1027.34 1027.19 1027.03 1026.86 1026.69 1026.52
Thickness
5753 5752 5749 5747 5746 5744 5741 5740 5740 5739 5738 5736 5735 5734 5732 5730 5729 5728 5726 5725 5722 5720 5719 5718 5716 5716 5714 5714 5713 5711 5709 5706 5698 5697 5699 5699 5699 5698 5696 5694 5692 5690 5687
5753 5751 5748 5746 5744 5742 5740 5739 5738 5737 5735 5734 5733 5731 5729 5727 5726 5724 5722 5721 5718 5716 5714 5713 5711 5711 5709 5708 5707 5705 5703 5701 5696 5690 5689 5688 5688 5687 5686 5684 5682 5679 5677
5752 5749 5746 5744 5742 5739 5738 5736 5735 5734 5732 5730 5729 5727 5725 5724 5722 5721 5719 5716 5713 5711 5709 5707 5705 5705 5702 5701 5700 5698 5696 5695 5691 5685 5679 5678 5677 5676 5674 5672 5670 5668 5666
5750 5746 5743 5741 5739 5736 5734 5732 5731 5730 5728 5726 5724 5723 5721 5719 5718 5716 5713 5710 5707 5704 5702 5700 5699 5698 5695 5694 5692 5690 5688 5684 5680 5675 5670 5667 5665 5664 5662 5658 5655 5654 5652
5747 5743 5740 5738 5736 5733 5730 5728 5726 5725 5723 5721 5719 5717 5716 5714 5712 5710 5706 5703 5700 5696 5694 5692 5691 5690 5689 5687 5684 5681 5678 5674 5669 5664 5659 5655 5652 5649 5646 5645 5642 5640 5638
5743 5739 5737 5734 5731 5728 5725 5723 5720 5718 5716 5714 5712 5710 5708 5707 5704 5702 5700 5695 5692 5689 5686 5683 5681 5680 5679 5677 5674 5672 5669 5664 5659 5654 5648 5644 5639 5636 5634 5634 5630 5627 5623
5738 5735 5732 5729 5725 5722 5719 5715 5712 5710 5708 5705 5703 5702 5700 5697 5696 5694 5691 5688 5683 5680 5677 5675 5672 5669 5667 5665 5661 5659 5656 5652 5650 5644 5638 5633 5629 5626 5624 5621 5617 5613 5609
5732 5729 5726 5723 5719 5716 5712 5708 5705 5703 5700 5697 5694 5692 5690 5688 5687 5684 5681 5678 5673 5670 5667 5664 5661 5657 5656 5653 5649 5645 5641 5638 5636 5632 5628 5623 5620 5616 5614 5610 5606 5601 5598
5726 5723 5721 5718 5714 5709 5705 5701 5698 5695 5691 5688 5685 5683 5681 5678 5676 5675 5672 5667 5663 5658 5656 5653 5650 5647 5644 5641 5637 5632 5628 5624 5622 5619 5616 5612 5608 5605 5602 5598 5593 5588 5582
5720 5717 5714 5711 5707 5703 5699 5694 5691 5687 5683 5679 5676 5673 5671 5668 5666 5664 5662 5658 5652 5647 5644 5641 5638 5635 5632 5629 5625 5620 5615 5610 5608 5604 5601 5598 5595 5592 5589 5585 5580 5575 5569
5714 5711 5707 5703 5700 5696 5691 5687 5683 5679 5674 5670 5666 5662 5659 5657 5655 5653 5651 5647 5643 5638 5633 5628 5625 5623 5620 5616 5613 5608 5604 5599 5595 5592 5587 5584 5581 5578 5575 5571 5567 5563 5556
5706 5702 5698 5694 5692 5687 5682 5677 5673 5670 5665 5660 5656 5651 5647 5645 5644 5641 5639 5636 5633 5628 5622 5617 5613 5610 5607 5604 5600 5596 5592 5587 5582 5578 5573 5569 5566 5563 5560 5557 5553 5549 5545
5695 5690 5687 5683 5680 5676 5672 5668 5663 5660 5656 5650 5646 5641 5636 5633 5631 5630 5628 5624 5621 5616 5611 5606 5602 5598 5594 5590 5586 5582 5579 5574 5569 5563 5558 5554 5551 5549 5546 5543 5539 5535 5531
5685 5679 5675 5672 5668 5663 5660 5657 5654 5649 5645 5640 5636 5630 5625 5622 5619 5617 5614 5611 5608 5603 5598 5594 5590 5586 5581 5577 5572 5568 5564 5560 5555 5550 5545 5541 5539 5535 5531 5527 5523 5519 5514
5674 5669 5664 5660 5656 5651 5646 5642 5641 5638 5636 5631 5626 5622 5617 5611 5608 5607 5604 5600 5596 5591 5586 5582 5577 5571 5566 5562 5557 5553 5549 5546 5541 5536 5532 5527 5523 5520 5516 5513 5508 5504 5498
5663 5658 5654 5649 5644 5640 5635 5628 5625 5624 5622 5619 5615 5611 5606 5603 5599 5596 5592 5589 5585 5581 5576 5569 5562 5557 5552 5547 5543 5539 5535 5531 5527 5523 5518 5514 5510 5506 5502 5499 5495 5490 5485
5654 5648 5643 5638 5634 5629 5625 5622 5615 5609 5607 5604 5602 5599 5595 5592 5588 5585 5581 5577 5573 5569 5562 5555 5550 5545 5540 5535 5531 5526 5521 5517 5514 5509 5505 5501 5498 5494 5490 5486 5483 5478 5474
5643 5637 5633 5628 5624 5620 5615 5611 5607 5603 5597 5590 5588 5586 5583 5581 5577 5574 5570 5566 5559 5554 5549 5544 5538 5533 5529 5524 5519 5514 5509 5505 5501 5497 5493 5489 5486 5483 5479 5475 5471 5468 5464
5631 5626 5622 5618 5613 5609 5605 5600 5596 5592 5588 5582 5577 5574 5572 5569 5566 5562 5559 5554 5547 5542 5537 5532 5527 5523 5518 5513 5508 5504 5499 5494 5490 5486 5482 5479 5476 5472 5469 5465 5462 5460 5455
5620 5617 5613 5609 5603 5599 5594 5590 5586 5582 5577 5573 5569 5565 5561 5558 5553 5549 5546 5542 5537 5531 5527 5522 5518 5513 5508 5503 5498 5493 5489 5484 5480 5476 5473 5469 5466 5463 5460 5457 5453 5450 5447
5611 5607 5604 5600 5595 5590 5586 5581 5577 5573 5568 5564 5560 5557 5553 5548 5543 5539 5535 5531 5527 5522 5518 5513 5509 5504 5499 5495 5490 5485 5480 5476 5472 5468 5464 5461 5458 5455 5452 5449 5446 5443 5440
5602 5598 5594 5590 5586 5582 5577 5573 5569 5565 5560 5556 5551 5547 5544 5539 5535 5531 5527 5523 5519 5515 5511 5506 5501 5496 5492 5487 5482 5477 5472 5468 5464 5461 5457 5454 5451 5448 5445 5442 5439 5436 5434
5594 5590 5586 5582 5578 5574 5569 5565 5561 5557 5552 5548 5543 5539 5535 5531 5526 5523 5519 5515 5511 5507 5503 5498 5493 5488 5484 5480 5476 5472 5467 5462 5459 5455 5451 5448 5444 5441 5438 5435 5433 5431 5428
5585 5582 5578 5575 5571 5567 5562 5558 5554 5550 5545 5541 5537 5532 5528 5524 5520 5516 5512 5508 5503 5499 5494 5490 5485 5481 5477 5473 5469 5465 5462 5458 5454 5450 5447 5443 5439 5436 5433 5430 5428 5426 5424
5577 5574 5571 5568 5564 5560 5556 5552 5547 5544 5540 5535 5530 5525 5521 5516 5512 5508 5504 5500 5496 5491 5486 5482 5478 5474 5471 5467 5464 5460 5457 5453 5449 5446 5442 5438 5435 5432 5429 5427 5424 5422 5420
5570 5567 5564 5561 5557 5554 5550 5545 5541 5537 5533 5529 5524 5519 5515 5510 5506 5501 5497 5493 5488 5484 5480 5476 5472 5469 5465 5462 5459 5455 5452 5448 5445 5442 5438 5435 5431 5428 5426 5423 5421 5418 5417